User: anonymous   Login
Location: ?????
(32.7281°N, 34.9563°E)
Time: 16:27:37
(UTC+00:00)
Language:

S3M - Orbit

View from above orbital plane
View from above orbital plane
View from above satellite
View from above satellite

Ground track
Ground track

The orbit data is extracted from the following two-line orbital elements,

1 12508U 81053B   21018.77027091  .00000032  00000-0  17162-4 0  9994
2 12508  82.9570 251.5498 0038194 137.0735 223.3414 13.76366786995661
Epoch (UTC): 18 January 2021 18:29:11
Eccentricity: 0.0038194
inclination: 82.9570°
perigee height: 949 km
apogee height: 1005 km
right ascension of ascending node: 251.5498°
argument of perigee: 137.0735°
revolutions per day: 13.76366786
mean anomaly at epoch: 223.3414°
orbit number at epoch: 99566

The dashed part of the orbit path shows where the satellite is in the earth's shadow,  

DLR